Location: Zagreb
(45.8000°N, 16.0000°E)
Time: 21:29:14
(UTC+01:00)

Courier 1B Rocket - Visible Passes

Search period start: 25 January 2022 00:00
Search period end: 04 February 2022 00:00
Orbit: 920 x 1202 km, 28.2° (Epoch: 24 January)

Date Brightness Start Highest point End Pass type
(mag) Time Alt. Az. Time Alt. Az. Time Alt. Az.
25 Jan 7.0 04:28:39 15° S 04:28:39 15° S 04:31:08 10° SSE visible
26 Jan 7.1 05:18:20 10° SSW 05:18:59 10° SSW 05:19:38 10° SSW visible
27 Jan 7.2 04:20:31 12° S 04:20:31 12° S 04:21:23 10° S visible
